Flag for Sweden Weather past 2 weeks in Linköping, Sweden

Now
54 °F

Partly sunny.


Feels Like: 48 °F
Forecast: 49 / 60 °F
Wind: 20 mph from West

Location: Linkoping / Saab

Current Time: Jun 3, 2015 at 6:16:24 PM

Latest Report: Jun 3, 2015 at 5:20 PM


Visibility: N/A

Pressure: 29.68 "Hg

Humidity: 67%

Dew point: 43 °F

Location of LinköpingLocation

Historic Weather in Linköping — Graph

°F

Linköping temperature yesterday

Maximum temperature yesterday: 57 °F (at 2:50 PM)
Minimum temperature yesterday: 43 °F (at 3:20 AM)
Average temperature yesterday: 51 °F

Past Weeks' High & Low Weather Summary

 TemperatureHumidityPressure
High63 °F (May 21, 4:20 PM)100% (May 21, 12:50 AM)30.12 "Hg (May 21, 12:50 AM)
Low41 °F (May 21, 2:20 AM)31% (May 23, 4:20 PM)29.42 "Hg (Jun 3, 3:50 AM)
Average52 °F70%29.79 "Hg
* Reported May 19 5:20 PM — Jun 3 5:20 PM, Linköping, Weather by CustomWeather, © 2015

Note: Actual official high and low records may vary slightly from our data, if they occured in-between our weather recording intervals... More about our weather records

Advertising

Linköping weather history for previous 24 hours

 ConditionsComfort  
Time TempWeatherWind HumidityBarometerVisibility
5:20 PM
Wed, Jun 3
54 °FPartly sunny.20 mph67%29.68 "HgN/A
4:50 PM54 °FBroken clouds.20 mph72%29.68 "HgN/A
4:20 PM55 °FBroken clouds.23 mph63%29.68 "HgN/A
3:50 PM55 °FBroken clouds.18 mph67%29.68 "HgN/A
3:20 PM54 °FRain showers. Scattered clouds.22 mph72%29.65 "HgN/A
2:50 PM57 °FBroken clouds.23 mph59%29.65 "HgN/A
2:20 PM55 °FPartly sunny.23 mph59%29.62 "HgN/A
1:50 PM55 °FBroken clouds.24 mph59%29.62 "HgN/A
1:20 PM55 °FBroken clouds.24 mph59%29.62 "HgN/A
12:50 PM55 °FScattered clouds.23 mph59%29.59 "HgN/A
12:20 PM55 °FBroken clouds.20 mph63%29.59 "HgN/A
11:50 AM55 °FBroken clouds.22 mph63%29.56 "HgN/A
11:20 AM55 °FBroken clouds.18 mph63%29.56 "HgN/A
10:50 AM55 °FMostly cloudy.14 mph67%29.53 "HgN/A
10:20 AM55 °FPartly sunny.20 mph63%29.53 "HgN/A
9:50 AM55 °FBroken clouds.22 mph63%29.50 "HgN/A
9:20 AM55 °FBroken clouds.18 mph67%29.50 "HgN/A
8:50 AM55 °FScattered clouds.17 mph67%29.50 "HgN/A
8:20 AM54 °FPassing clouds.16 mph72%29.50 "HgN/A
7:50 AM54 °FPassing clouds.13 mph72%29.50 "HgN/A
7:20 AM50 °FSunny.13 mph82%29.50 "Hg10 mi
6:50 AM52 °FSprinkles. Passing clouds.17 mph82%29.47 "HgN/A
6:20 AM52 °FSprinkles. Passing clouds.13 mph88%29.47 "HgN/A
5:20 AM50 °FScattered clouds.7 mph94%29.45 "HgN/A
4:50 AM50 °FPassing clouds.7 mph94%29.45 "HgN/A
4:20 AM50 °FPassing clouds.15 mph94%29.45 "Hg6 mi
3:50 AM54 °FPassing clouds.7 mph94%29.42 "Hg6 mi
3:20 AM52 °FPartly cloudy.3 mph100%29.45 "Hg5 mi
2:50 AM54 °FPassing clouds.8 mph88%29.45 "HgN/A
2:20 AM54 °FPartly cloudy.7 mph88%29.45 "HgN/A
1:50 AM54 °FPartly cloudy.6 mph88%29.47 "HgN/A
1:20 AM55 °FPassing clouds.10 mph82%29.47 "HgN/A
12:50 AM55 °FPassing clouds.13 mph82%29.47 "HgN/A
12:20 AM55 °FPassing clouds.12 mph88%29.47 "HgN/A
11:20 PM
Tue, Jun 2
55 °FPassing clouds.12 mph88%29.45 "HgN/A
10:50 PM55 °FPartly cloudy.12 mph88%29.45 "HgN/A
10:20 PM54 °FBroken clouds.12 mph94%29.47 "HgN/A
9:50 PM54 °FPartly sunny.10 mph94%29.47 "HgN/A
9:20 PM55 °FPartly sunny.14 mph82%29.47 "HgN/A
8:50 PM55 °FPartly sunny.12 mph82%29.50 "HgN/A
8:20 PM55 °FLight rain. Partly sunny.13 mph82%29.50 "HgN/A
7:50 PM55 °FPartly sunny.12 mph77%29.53 "HgN/A
7:20 PM55 °FPartly sunny.12 mph77%29.53 "HgN/A
6:50 PM55 °FBroken clouds.17 mph77%29.53 "HgN/A
6:20 PM57 °FPartly sunny.14 mph72%29.56 "HgN/A
Weather by CustomWeather, © 2015

See weather overviewHow to use our weather pages